Regional Weather Roundup
Issued by NWS

Home | Current Version | Previous Version | Text Only | Print | Product List | Glossary On
Versions: 1 2 3 4 5 6 7 8 9 10 11 12 13 14 15 16 17 18 19 20 21 22 23 24 25 26 27 28
000
ASUS44 KJAN 270020
RWRMS

MISSISSIPPI HOURLY WEATHER ROUNDUP
NATIONAL WEATHER SERVICE JACKSON MS
700 PM CDT FRI AUG 26 2016

NOTE: "FAIR: INDICATES FEW OR NO CLOUDS BELOW 12,000 FEET WITH NO
SIGNIFICANT WEATHER AND/OR OBSTRUCTIONS TO VISIBILITY.

MSZ001>002-007>008-010>013-018>021-025>028-034>036-270100-
NORTHWEST MISSISSIPPI

CITY           SKY/WX    TMP DP  RH WIND       PRES   REMARKS
CLARKSDALE     CLEAR     77  77 100 NW3       30.03R
GREENWOOD      PTCLDY    82  72  71 E6        30.01R
6HR MIN TEMP:  79; 6HR MAX TEMP:  92; 6HR PCP:  0.01;

GREENVILLE     CLOUDY    77  74  90 CALM      30.01R
6HR MIN TEMP:  75; 6HR MAX TEMP:  93; 6HR PCP:  0.15;

OLIVE BRANCH   CLOUDY   N/A N/A N/A NE9       30.04F
OXFORD         FAIR      75  72  88 N3        30.06S
TUNICA         CLOUDY    75  72  88 NE5       30.05S
$$

MSZ003>006-009-014>017-022>024-029>033-037>039-270100-
NORTHEAST MISSISSIPPI

CITY           SKY/WX    TMP DP  RH WIND       PRES   REMARKS
COLUMBUS AFB   CLOUDY    81  75  83 NE8       30.01R
6HR MIN TEMP:  77; 6HR MAX TEMP:  83; 6HR PCP:  0.19;

CORINTH        RAIN      75  73  94 N5        30.05R
GOLDN TRIANGLE CLEAR     84  72  65 N7        30.01S
TUPELO         CLOUDY    76  72  87 N3        30.03S
6HR MIN TEMP:  73; 6HR MAX TEMP:  78; 6HR PCP:  1.24;

$$

MSZ040-058-270100-
CENTRAL MISSISSIPPI

CITY           SKY/WX    TMP DP  RH WIND       PRES   REMARKS
JACKSON INTL   PTCLDY    85  75  72 NE3       29.99S HX  93
6HR MIN TEMP:  81; 6HR MAX TEMP:  91; 6HR PCP:  0.12;

JACKSON HAWKNS PTCLDY    82  73  74 NW6       30.00R
6HR MIN TEMP:  80; 6HR MAX TEMP:  91; 6HR PCP:  0.02;

MERIDIAN KEY   CLEAR     90  68  48 SE3       29.99S HX  94
6HR MIN TEMP:  90; 6HR MAX TEMP:  96;

MERIDIAN NAS   CLEAR     89  64  43 S3        30.00R HX  90
6HR MIN TEMP:  89; 6HR MAX TEMP:  96;

$$

MSZ059>079-270100-
SOUTH MISSISSIPPI

CITY           SKY/WX    TMP DP  RH WIND       PRES   REMARKS
BROOKHAVEN     FAIR     N/A N/A N/A CALM      30.01R
HATTIESBURG    CLEAR     88  71  57 E3        29.98S HX  94
6HR MIN TEMP:  88; 6HR MAX TEMP:  92;

MCCOMB         CLOUDY    84  71  65 E3        29.98R
6HR MIN TEMP:  83; 6HR MAX TEMP:  91;

NATCHEZ        MOCLDY    81  75  83 N3        29.98S
6HR MIN TEMP:  82; 6HR MAX TEMP:  90;

PINE BELT      CLEAR     82  72  69 CALM      30.01R
$$

MSZ080>082-270100-
COASTAL MISSISSIPPI

CITY           SKY/WX    TMP DP  RH WIND       PRES   REMARKS
BAY ST LOUIS   PTCLDY    82  73  74 S6        29.97S
BILOXI         CLOUDY    85  75  71 SE12      29.96S HX  94
6HR MIN TEMP:  85; 6HR MAX TEMP:  92; 6HR PCP: TRACE;

PASCAGOULA     CLEAR     83  76  79 SE6       29.97S HX  91
6HR MIN TEMP:  83; 6HR MAX TEMP:  93;

GULFPORT       CLOUDY    85  74  69 SE12      29.96S HX  92
6HR MIN TEMP:  85; 6HR MAX TEMP:  92;

$$

LAZ007>009-015>016-023>026-270100-
NORTHEAST LOUISIANA

CITY           SKY/WX    TMP DP  RH WIND       PRES   REMARKS
BASTROP        CLOUDY    82  77  86 CALM      30.00R
TALLULAH/VBURG CLEAR     80  75  84 CALM      29.99S
6HR MIN TEMP:  75; 6HR MAX TEMP:  93; 6HR PCP:  0.51;

$$




USA.gov is the U.S. government's official web portal to all federal, state and local government web resources and services.